Volver al catálogo

BREEZE-M DEB

LostHEO
NORAD 38632·DEBRIS·🇷🇺 Russia

Lanzado Mar 14, 2008 desde Baikonur Cosmodrome

Loading…

Próximos Pases (próximas 24 horas)

TLE

ObsoletoSource: Space-Track

Época: Aug 4, 2018, 07:53 UTC

1 38632U 08011CF  18216.32901269 -.00000055  00000-0 -38162-3 0  9997
2 38632  49.1044 186.3618 6488333 154.3948 358.6116  3.15461352 83469

Sigue BREEZE-M DEB en tiempo real con AllMySat

Download on the App Store